DW6455 Orivesi FI current weather conditions

sailwx.info

Wind from 302

Air temperature 13.3° C
Dewpoint 12.2° C

Last reported at 2016-Jul-27 21:52 UTC.
Time now 2016-Jul-27 23:04 UTC

Location: N 61°39' E 024°21'.
View on Google Maps.

See reports from other nearby stations

  
Tides and Currents Weather Stations Pressure Air Temp Water Temp Dewpoint Dewpoint Depression Visibility Wind Speed Wind Dir Waves Ship Positions
date/time (UTC)wind fromknots sea level pressurealtimeterstation pressurevisibilityair tempwater tempwave heightnotes
2016-Jul-27 21:52 302 13.3
2016-Jul-27 21:47 302 13.3
2016-Jul-27 21:42 302 13.3
2016-Jul-27 21:37 302 13.3
2016-Jul-27 21:32 302 13.3
2016-Jul-27 21:27 302 13.9
2016-Jul-27 21:22 302 13.9
2016-Jul-27 21:17 302 13.9
2016-Jul-27 21:12 302 14.4
2016-Jul-27 21:07 302 14.4
2016-Jul-27 21:02 302 14.4
2016-Jul-27 20:57 302 14.4
2016-Jul-27 20:52 302 14.4
2016-Jul-27 20:47 302 15.0
2016-Jul-27 20:42 302 15.0
2016-Jul-27 20:37 302 15.0
2016-Jul-27 20:32 302 15.0
2016-Jul-27 20:27 302 15.6
2016-Jul-27 20:22 302 15.6
2016-Jul-27 20:17 302 15.6
2016-Jul-27 20:12 302 15.6
2016-Jul-27 20:07 302 16.1
2016-Jul-27 20:02 302 16.1
2016-Jul-27 19:57 302 16.1
2016-Jul-27 19:52 302 16.7
2016-Jul-27 19:47 302 16.7
2016-Jul-27 19:42 302 17.2
2016-Jul-27 19:37 302 17.2
2016-Jul-27 19:32 302 17.8
2016-Jul-27 19:27 302 17.8
2016-Jul-27 19:22 302 0 gusting 2 18.3
2016-Jul-27 19:17 302 18.3
2016-Jul-27 19:12 302 18.3
2016-Jul-27 19:07 302 18.9
2016-Jul-27 19:02 302 0 gusting 3 18.9
2016-Jul-27 18:57 302 0 gusting 4 18.9
2016-Jul-27 18:52 298 0 gusting 4 19.4
2016-Jul-27 18:47 297 0 gusting 3 19.4
2016-Jul-27 18:42 297 0 gusting 3 19.4
2016-Jul-27 18:37 300 0 gusting 3 19.4
2016-Jul-27 18:32 317 0 gusting 3 19.4
2016-Jul-27 18:27 321 0 gusting 3 20.0
2016-Jul-27 18:22 321 0 gusting 3 20.0
2016-Jul-27 18:17 321 0 gusting 1 20.0
2016-Jul-27 18:12 323 0 gusting 1 20.0
2016-Jul-27 18:07 301 20.6
2016-Jul-27 18:02 301 20.6
2016-Jul-27 17:57 301 20.6
2016-Jul-27 17:52 301 20.6
2016-Jul-27 17:47 301 21.1
2016-Jul-27 17:42 301 21.1
2016-Jul-27 17:37 301 21.1
2016-Jul-27 17:32 301 21.7
2016-Jul-27 17:27 301 21.7
2016-Jul-27 17:22 301 21.7
2016-Jul-27 17:17 301 0 gusting 4 22.2
2016-Jul-27 17:12 301 0 gusting 4 22.2
2016-Jul-27 17:07 292 22.2
2016-Jul-27 17:02 309 22.2
2016-Jul-27 16:57 309 22.2
2016-Jul-27 16:52 309 0 gusting 3 22.2
2016-Jul-27 16:47 309 22.2
2016-Jul-27 16:42 015 22.8
2016-Jul-27 16:37 275 22.8
2016-Jul-27 16:32 275 22.8
2016-Jul-27 16:27 243 0 gusting 8 22.8
2016-Jul-27 16:22 342 0 gusting 3 23.3
2016-Jul-27 16:17 256 1 gusting 3 23.3
2016-Jul-27 16:12 302 1 gusting 3 23.3
2016-Jul-27 16:07 318 23.3
2016-Jul-27 16:02 225 0 gusting 5 23.3
2016-Jul-27 15:57 225 0 gusting 5 23.3
2016-Jul-27 15:52 225 23.3
2016-Jul-27 15:47 267 0 gusting 3 23.3
2016-Jul-27 15:42 252 0 gusting 3 23.3
2016-Jul-27 15:37 227 0 gusting 3 23.3
2016-Jul-27 15:32 219 0 gusting 3 23.3
2016-Jul-27 15:27 240 23.3
2016-Jul-27 15:22 211 23.3
2016-Jul-27 15:17 211 0 gusting 8 23.9
2016-Jul-27 15:12 323 0 gusting 8 23.9
2016-Jul-27 15:07 323 1 gusting 8 23.9
2016-Jul-27 15:02 313 0 gusting 8 23.9
2016-Jul-27 14:57 204 0 gusting 8 23.9
2016-Jul-27 14:52 139 1 gusting 3 23.9
2016-Jul-27 14:47 225 1 gusting 3 23.9
2016-Jul-27 14:42 245 24.4
2016-Jul-27 14:37 254 24.4
2016-Jul-27 14:32 022 0 gusting 10 24.4
2016-Jul-27 14:27 236 1 gusting 9 24.4
2016-Jul-27 14:22 109 2 gusting 9 24.4
2016-Jul-27 14:17 313 2 gusting 9 24.4
2016-Jul-27 14:12 207 2 gusting 6 24.4
2016-Jul-27 14:07 223 2 gusting 6 24.4
2016-Jul-27 14:02 218 1 gusting 6 24.4
2016-Jul-27 13:57 198 0 gusting 8 23.9
2016-Jul-27 13:52 264 1 gusting 8 24.4
2016-Jul-27 13:47 256 0 gusting 7 24.4
2016-Jul-27 13:42 252 0 gusting 7 24.4
2016-Jul-27 13:37 284 0 gusting 6 24.4
2016-Jul-27 13:32 234 1 gusting 6 24.4
2016-Jul-27 13:27 234 1 gusting 6 24.4
2016-Jul-27 13:22 247 1 gusting 6 25.0
2016-Jul-27 13:17 257 0 gusting 8 25.0
2016-Jul-27 13:12 331 1 gusting 8 25.0
2016-Jul-27 13:07 207 2 gusting 13 24.4
2016-Jul-27 13:02 277 3 gusting 13 25.0
2016-Jul-27 12:57 242 3 gusting 13 25.0
2016-Jul-27 12:52 252 4 gusting 13 25.0
2016-Jul-27 12:47 273 4 gusting 8 25.0
2016-Jul-27 12:42 231 2 gusting 8 25.0
2016-Jul-27 12:37 267 1 gusting 12 25.0
2016-Jul-27 12:32 304 2 gusting 12 25.0
2016-Jul-27 12:27 338 2 gusting 12 24.4
2016-Jul-27 12:22 327 1 gusting 12 24.4
2016-Jul-27 12:17 230 2 gusting 9 24.4
2016-Jul-27 12:12 269 2 gusting 9 24.4
2016-Jul-27 12:07 205 2 gusting 7 24.4
2016-Jul-27 12:02 209 3 gusting 7 24.4
2016-Jul-27 11:57 263 2 gusting 7 24.4
2016-Jul-27 11:52 314 1 gusting 6 24.4
2016-Jul-27 11:47 245 1 gusting 6 24.4
2016-Jul-27 11:42 338 1 gusting 6 24.4
2016-Jul-27 11:37 228 1 gusting 10 24.4
2016-Jul-27 11:32 316 1 gusting 10 24.4
2016-Jul-27 11:27 342 1 gusting 5 23.9
2016-Jul-27 11:22 234 0 gusting 5 23.9
2016-Jul-27 11:17 267 23.9
2016-Jul-27 11:12 248 23.9
2016-Jul-27 11:07 248 0 gusting 4 23.9
2016-Jul-27 11:02 246 0 gusting 4 23.9
2016-Jul-27 10:57 323 0 gusting 6 24.4
2016-Jul-27 10:52 323 1 gusting 6 24.4
2016-Jul-27 10:47 284 0 gusting 5 24.4
2016-Jul-27 10:42 229 24.4
2016-Jul-27 10:37 225 0 gusting 5 24.4
2016-Jul-27 10:32 302 0 gusting 5 24.4
2016-Jul-27 10:27 279 0 gusting 4 23.9
2016-Jul-27 10:22 338 1 gusting 4 23.3
2016-Jul-27 10:17 211 1 gusting 4 23.3
2016-Jul-27 10:12 232 0 gusting 5 23.3
2016-Jul-27 10:07 225 0 gusting 5 23.3
2016-Jul-27 10:02 238 0 gusting 5 23.3
2016-Jul-27 09:57 247 1 gusting 7 23.3
2016-Jul-27 09:52 188 0 gusting 7 23.3
2016-Jul-27 09:47 205 23.3
2016-Jul-27 09:42 295 0 gusting 7 23.3
2016-Jul-27 09:37 296 1 gusting 6 23.3
2016-Jul-27 09:32 238 1 gusting 6 23.3
2016-Jul-27 09:27 258 0 gusting 6 23.3
2016-Jul-27 09:22 252 0 gusting 7 23.3
2016-Jul-27 09:17 261 1 gusting 7 23.3
2016-Jul-27 09:12 220 1 gusting 7 23.3
2016-Jul-27 09:07 220 2 gusting 6 23.3
2016-Jul-27 09:02 215 2 gusting 6 23.3
2016-Jul-27 08:57 251 1 gusting 6 23.3
2016-Jul-27 08:52 196 0 gusting 6 23.3
2016-Jul-27 08:47 309 1 gusting 4 23.3
2016-Jul-27 08:42 344 1 gusting 4 23.3
2016-Jul-27 08:37 269 1 gusting 7 22.8
2016-Jul-27 08:32 234 0 gusting 7 22.8
2016-Jul-27 08:27 221 0 gusting 7 22.8
2016-Jul-27 08:22 221 1 gusting 7 22.8
2016-Jul-27 08:17 229 1 gusting 6 22.8
2016-Jul-27 08:12 178 0 gusting 6 22.8
2016-Jul-27 08:07 219 0 gusting 4 22.8
2016-Jul-27 08:02 300 1 gusting 4 22.8
2016-Jul-27 07:57 260 1 gusting 4 22.8
2016-Jul-27 07:52 223 2 gusting 4 22.8
2016-Jul-27 07:47 204 1 gusting 5 22.8
2016-Jul-27 07:42 200 0 gusting 5 22.2
2016-Jul-27 07:37 204 0 gusting 5 22.2
2016-Jul-27 07:32 229 0 gusting 4 22.2
2016-Jul-27 07:27 220 0 gusting 4 21.7
2016-Jul-27 07:22 263 0 gusting 4 21.7
2016-Jul-27 07:17 206 0 gusting 4 21.7
2016-Jul-27 07:12 216 0 gusting 4 21.7
2016-Jul-27 07:07 271 0 gusting 3 21.7
2016-Jul-27 07:02 317 0 gusting 3 21.1
2016-Jul-27 06:57 286 0 gusting 3 21.1
2016-Jul-27 06:52 261 21.1
2016-Jul-27 06:47 227 21.1
2016-Jul-27 06:42 227 21.1
2016-Jul-27 06:37 242 0 gusting 2 21.1
2016-Jul-27 06:32 242 0 gusting 2 21.1
2016-Jul-27 06:27 220 21.1
2016-Jul-27 06:22 209 20.6
2016-Jul-27 06:17 209 20.6
2016-Jul-27 06:12 229 0 gusting 4 20.6
2016-Jul-27 06:07 244 0 gusting 5 20.6
2016-Jul-27 06:02 213 0 gusting 5 20.6
2016-Jul-27 05:57 277 0 gusting 5 20.0
2016-Jul-27 05:52 277 0 gusting 6 20.0
2016-Jul-27 05:47 190 0 gusting 6 19.4
2016-Jul-27 05:42 239 0 gusting 6 19.4
2016-Jul-27 05:37 202 0 gusting 4 19.4
2016-Jul-27 05:32 223 0 gusting 4 19.4
2016-Jul-27 05:27 229 0 gusting 4 18.9
2016-Jul-27 05:22 229 0 gusting 4 18.9
2016-Jul-27 05:17 223 0 gusting 4 18.9
2016-Jul-27 05:12 219 18.3
2016-Jul-27 05:07 251 18.3
2016-Jul-27 05:02 249 18.3
2016-Jul-27 04:57 238 18.3
2016-Jul-27 04:52 238 18.3
2016-Jul-27 04:47 238 18.3
2016-Jul-27 04:42 239 18.3
2016-Jul-27 04:37 238 18.3
2016-Jul-27 04:32 238 18.3
2016-Jul-27 04:27 238 17.8
2016-Jul-27 04:22 239 17.8
2016-Jul-27 04:17 246 0 gusting 0 17.8
2016-Jul-27 04:12 214 17.8
2016-Jul-27 04:07 254 0 gusting 0 17.2
2016-Jul-27 04:02 228 17.2
2016-Jul-27 03:57 244 16.7
2016-Jul-27 03:52 244 16.7
2016-Jul-27 03:47 244 16.7
2016-Jul-27 03:42 244 16.7
2016-Jul-27 03:37 244 16.1
2016-Jul-27 03:32 244 16.1
2016-Jul-27 03:27 244 16.1
2016-Jul-27 03:22 247 16.1
2016-Jul-27 03:17 247 15.6
2016-Jul-27 03:12 247 15.6
2016-Jul-27 03:07 247 15.6
2016-Jul-27 03:02 250 15.6
2016-Jul-27 02:57 250 15.6
2016-Jul-27 02:52 251 15.6
2016-Jul-27 02:47 251 15.6
2016-Jul-27 02:42 250 15.6
2016-Jul-27 02:37 250 15.6
2016-Jul-27 02:33 250 15.6
2016-Jul-27 02:27 251 15.6
2016-Jul-27 02:22 250 15.6
2016-Jul-27 02:17 251 15.6
2016-Jul-27 02:12 250 15.6
2016-Jul-27 02:07 250 15.6
2016-Jul-27 02:02 251 15.6
2016-Jul-27 01:57 250 15.6
2016-Jul-27 01:52 250 15.6
2016-Jul-27 01:47 250 15.6
2016-Jul-27 01:42 250 15.6
2016-Jul-27 01:37 251 15.6
2016-Jul-27 01:32 251 15.6
2016-Jul-27 01:27 250 15.6
2016-Jul-27 01:22 250 15.6
2016-Jul-27 01:17 250 0 gusting 1 15.6
2016-Jul-27 01:12 250 0 gusting 1 15.6
2016-Jul-27 01:07 250 0 gusting 1 16.1
2016-Jul-27 01:02 250 16.1
2016-Jul-27 00:57 258 16.1
2016-Jul-27 00:52 258 16.1
2016-Jul-27 00:47 216 16.1
2016-Jul-27 00:42 216 16.1
2016-Jul-27 00:37 216 16.1
2016-Jul-27 00:32 216 16.1
2016-Jul-27 00:27 216 16.1
2016-Jul-27 00:22 216 16.1
2016-Jul-27 00:17 216 16.1
2016-Jul-27 00:12 217 16.1
2016-Jul-27 00:07 216 16.1
2016-Jul-27 00:02 217 16.1
2016-Jul-26 23:57 216 16.1
2016-Jul-26 23:52 216 16.1
2016-Jul-26 23:47 216 16.1
2016-Jul-26 23:42 216 16.1
2016-Jul-26 23:37 216 16.1
2016-Jul-26 23:32 216 16.7
2016-Jul-26 23:27 216 16.7
2016-Jul-26 23:22 216 16.7
2016-Jul-26 23:17 216 16.7
2016-Jul-26 23:12 216 16.7
2016-Jul-26 23:07 216 16.7
2016-Jul-26 23:02 216 16.7
2016-Jul-26 22:57 217 16.7
2016-Jul-26 22:52 217 16.7
2016-Jul-26 22:47 216 16.7
2016-Jul-26 22:42 217 16.7
2016-Jul-26 22:37 216 0 gusting 0 16.7
2016-Jul-26 22:32 216 0 gusting 0 16.7
2016-Jul-26 22:27 105 16.7
2016-Jul-26 22:22 105 16.7
2016-Jul-26 22:17 105 16.7
2016-Jul-26 22:12 105 17.2
2016-Jul-26 22:07 104 17.2
2016-Jul-26 22:02 105 17.2
2016-Jul-26 21:57 105 17.2
2016-Jul-26 21:52 112 17.2
2016-Jul-26 21:47 115 17.2
2016-Jul-26 21:42 153 17.8
2016-Jul-26 21:37 153 17.8
2016-Jul-26 21:32 153 17.8
2016-Jul-26 21:27 153 17.8
2016-Jul-26 21:22 153 17.8
2016-Jul-26 21:17 153 17.8
2016-Jul-26 21:12 153 17.8
2016-Jul-26 21:07 153 17.8
2016-Jul-26 21:02 153 18.3
2016-Jul-26 20:57 153 18.3
2016-Jul-26 20:52 153 18.3
2016-Jul-26 20:47 153 18.3
2016-Jul-26 20:42 153 18.3
2016-Jul-26 20:37 153 18.3
2016-Jul-26 20:32 153 18.9
2016-Jul-26 20:27 153 18.9
2016-Jul-26 20:22 153 18.9
2016-Jul-26 20:17 153 18.9
2016-Jul-26 20:12 153 18.9
2016-Jul-26 20:07 153 18.9
2016-Jul-26 20:02 153 18.9
2016-Jul-26 19:57 153 18.9
2016-Jul-26 19:52 153 18.9
2016-Jul-26 19:47 153 18.9
2016-Jul-26 19:42 153 18.9
2016-Jul-26 19:37 153 18.9
2016-Jul-26 19:32 153 18.9
2016-Jul-26 19:27 153 19.4
2016-Jul-26 19:22 153 19.4
2016-Jul-26 19:17 153 19.4
2016-Jul-26 19:12 153 19.4
2016-Jul-26 19:07 153 20.0
2016-Jul-26 19:02 153 20.0
2016-Jul-26 18:57 153 20.0
2016-Jul-26 18:52 153 20.6
2016-Jul-26 18:47 153 20.6
2016-Jul-26 18:42 153 20.6
2016-Jul-26 18:37 153 21.1
2016-Jul-26 18:32 153 21.1
2016-Jul-26 18:27 153 21.7
2016-Jul-26 18:22 153 21.7
2016-Jul-26 18:17 153 22.2
2016-Jul-26 18:12 153 22.8
2016-Jul-26 18:07 153 22.8
2016-Jul-26 18:02 153 23.3
2016-Jul-26 17:47 153 23.9
2016-Jul-26 17:42 153 23.9
2016-Jul-26 17:37 153 23.9
2016-Jul-26 17:32 153 24.4
2016-Jul-26 17:27 153 24.4
2016-Jul-26 17:22 153 24.4
2016-Jul-26 17:17 153 24.4
2016-Jul-26 17:12 153 24.4
2016-Jul-26 17:07 153 24.4
2016-Jul-26 17:02 153 24.4
2016-Jul-26 16:57 153 24.4
2016-Jul-26 16:52 153 24.4
2016-Jul-26 16:47 153 0 gusting 1 24.4
2016-Jul-26 16:42 153 24.4
2016-Jul-26 16:37 153 24.4
2016-Jul-26 16:32 153 0 gusting 1 24.4
2016-Jul-26 16:27 153 0 gusting 1 24.4
2016-Jul-26 16:22 153 0 gusting 1 24.4
2016-Jul-26 16:17 153 24.4
2016-Jul-26 16:12 153 0 gusting 4 24.4
2016-Jul-26 16:07 153 1 gusting 4 24.4
2016-Jul-26 16:02 153 1 gusting 5 24.4
2016-Jul-26 15:57 161 1 gusting 5 24.4
2016-Jul-26 15:52 159 1 gusting 5 24.4
2016-Jul-26 15:47 159 1 gusting 5 24.4
2016-Jul-26 15:42 161 2 gusting 5 24.4
2016-Jul-26 15:37 168 2 gusting 5 24.4
2016-Jul-26 15:32 157 2 gusting 5 24.4
2016-Jul-26 15:27 173 2 gusting 5 24.4
2016-Jul-26 15:22 158 1 gusting 5 25.0
2016-Jul-26 15:17 180 0 gusting 4 25.0
2016-Jul-26 15:12 183 1 gusting 4 25.0
2016-Jul-26 15:07 182 2 gusting 4 25.0
2016-Jul-26 15:02 166 0 gusting 4 25.0
2016-Jul-26 14:57 175 0 gusting 4 25.0
2016-Jul-26 14:52 175 1 gusting 4 25.0
2016-Jul-26 14:47 157 0 gusting 2 25.0
2016-Jul-26 14:42 166 0 gusting 2 25.0
2016-Jul-26 14:37 191 0 gusting 2 25.0
2016-Jul-26 14:32 198 0 gusting 5 25.6
2016-Jul-26 14:27 180 0 gusting 5 25.0
2016-Jul-26 14:22 180 0 gusting 5 25.0
2016-Jul-26 14:17 210 1 gusting 4 25.0
2016-Jul-26 14:12 217 1 gusting 4 25.0
2016-Jul-26 14:07 202 1 gusting 6 25.0
2016-Jul-26 14:02 186 1 gusting 6 25.0
2016-Jul-26 13:57 169 2 gusting 6 24.4
2016-Jul-26 13:52 185 2 gusting 6 24.4
2016-Jul-26 13:47 163 1 gusting 8 24.4
2016-Jul-26 13:42 203 1 gusting 8 23.9
2016-Jul-26 13:37 199 3 gusting 8 23.9
2016-Jul-26 13:32 152 3 gusting 8 23.9
2016-Jul-26 13:27 153 3 gusting 8 23.9
2016-Jul-26 13:22 171 4 gusting 8 23.9
2016-Jul-26 13:17 150 4 gusting 10 23.9
2016-Jul-26 13:12 157 4 gusting 10 23.9
2016-Jul-26 13:07 189 4 gusting 10 23.9
2016-Jul-26 13:02 159 2 gusting 10 24.4
2016-Jul-26 12:57 158 3 gusting 10 24.4
2016-Jul-26 12:52 148 3 gusting 10 24.4
2016-Jul-26 12:47 199 3 gusting 10 23.9
2016-Jul-26 12:42 217 5 gusting 10 24.4
2016-Jul-26 12:37 163 6 gusting 10 23.9
2016-Jul-26 12:32 157 3 gusting 6 23.9
2016-Jul-26 12:27 131 2 gusting 6 23.9
2016-Jul-26 12:22 196 1 gusting 6 23.9
2016-Jul-26 12:17 150 1 gusting 6 23.3
2016-Jul-26 12:12 169 0 gusting 6 23.3
2016-Jul-26 12:07 204 0 gusting 6 23.3
2016-Jul-26 12:02 204 1 gusting 6 23.3
2016-Jul-26 11:57 215 1 gusting 11 23.3
2016-Jul-26 11:52 227 1 gusting 11 23.3
2016-Jul-26 11:47 253 3 gusting 11 22.8
2016-Jul-26 11:42 140 5 gusting 13 23.3
2016-Jul-26 11:37 194 6 gusting 13 23.3
2016-Jul-26 11:32 159 6 gusting 13 23.3
2016-Jul-26 11:27 157 7 gusting 6 23.9
2016-Jul-26 11:22 146 6 gusting 6 24.4
2016-Jul-26 11:17 128 4 gusting 6 24.4
2016-Jul-26 11:12 161 3 gusting 6 25.0
2016-Jul-26 11:07 176 4 gusting 6 25.6
2016-Jul-26 11:02 170 5 gusting 6 25.6
2016-Jul-26 10:57 188 4 gusting 6 26.1
2016-Jul-26 10:52 175 3 gusting 6 26.1
2016-Jul-26 10:47 153 3 gusting 6 26.1
2016-Jul-26 10:42 152 3 gusting 6 26.1
2016-Jul-26 10:37 146 2 gusting 6 26.7
2016-Jul-26 10:32 182 2 gusting 6 26.1
2016-Jul-26 10:27 198 2 gusting 7 26.1
2016-Jul-26 10:22 183 3 gusting 7 26.1
2016-Jul-26 10:17 148 4 gusting 7 26.1
2016-Jul-26 10:12 144 4 gusting 7 26.1
2016-Jul-26 10:07 148 5 gusting 6 25.6
2016-Jul-26 10:02 167 4 gusting 6 26.1
2016-Jul-26 09:57 161 3 gusting 6 26.1
2016-Jul-26 09:52 147 2 gusting 6 26.1
2016-Jul-26 09:47 168 3 gusting 6 25.6
2016-Jul-26 09:42 153 4 gusting 6 25.6
2016-Jul-26 09:37 157 4 gusting 6 25.6
2016-Jul-26 09:32 163 3 gusting 6 26.1
2016-Jul-26 09:27 122 3 gusting 6 26.1
2016-Jul-26 09:22 174 2 gusting 6 26.1
2016-Jul-26 09:17 146 2 gusting 6 26.1
2016-Jul-26 09:12 185 3 gusting 6 26.1
2016-Jul-26 09:07 146 3 gusting 6 26.1
2016-Jul-26 09:02 138 2 gusting 6 26.1
2016-Jul-26 08:57 136 2 gusting 6 25.6
2016-Jul-26 08:52 118 3 gusting 6 25.6
2016-Jul-26 08:47 180 3 gusting 6 25.6
2016-Jul-26 08:42 144 3 gusting 6 25.6
2016-Jul-26 08:37 153 3 gusting 5 25.0
2016-Jul-26 08:32 151 2 gusting 5 25.0
2016-Jul-26 08:27 149 2 gusting 5 25.0
2016-Jul-26 08:22 198 3 gusting 5 24.4
2016-Jul-26 08:17 184 3 gusting 5 24.4
2016-Jul-26 08:12 193 2 gusting 3 24.4
2016-Jul-26 08:07 214 1 gusting 3 24.4
2016-Jul-26 08:02 200 1 gusting 3 24.4
2016-Jul-26 07:57 190 1 gusting 3 24.4
2016-Jul-26 07:52 198 1 gusting 3 24.4
2016-Jul-26 07:47 150 1 gusting 6 24.4
2016-Jul-26 07:42 213 1 gusting 6 23.9
2016-Jul-26 07:37 213 2 gusting 6 23.9
2016-Jul-26 07:32 212 2 gusting 3 23.9
2016-Jul-26 07:27 169 1 gusting 3 23.9
2016-Jul-26 07:22 144 0 gusting 3 23.9
2016-Jul-26 07:17 196 0 gusting 5 23.3
2016-Jul-26 07:12 188 0 gusting 5 23.3
2016-Jul-26 07:07 190 1 gusting 4 23.3
2016-Jul-26 07:02 188 1 gusting 4 23.3
2016-Jul-26 06:57 161 1 gusting 4 23.3
2016-Jul-26 06:52 182 1 gusting 4 23.3
2016-Jul-26 06:47 202 0 gusting 4 22.8
2016-Jul-26 06:42 146 0 gusting 4 22.8
2016-Jul-26 06:37 146 1 gusting 3 22.8
2016-Jul-26 06:32 147 1 gusting 3 22.8
2016-Jul-26 06:27 167 1 gusting 3 22.8
2016-Jul-26 06:22 167 1 gusting 2 22.8
2016-Jul-26 06:17 171 0 gusting 2 22.8
2016-Jul-26 06:12 194 0 gusting 2 22.8
2016-Jul-26 06:07 200 0 gusting 2 23.3
2016-Jul-26 06:02 332 0 gusting 2 23.3
2016-Jul-26 05:57 332 0 gusting 2 23.9
2016-Jul-26 05:52 332 0 gusting 2 24.4
2016-Jul-26 05:47 332 24.4
2016-Jul-26 05:42 332 23.9
2016-Jul-26 05:37 331 23.9
2016-Jul-26 05:32 332 23.3
2016-Jul-26 05:27 332 23.3
2016-Jul-26 05:22 332 22.8
2016-Jul-26 05:17 332 21.7
2016-Jul-26 05:12 332 21.1
2016-Jul-26 05:07 332 20.0
2016-Jul-26 05:02 332 19.4
2016-Jul-26 04:57 332 18.3
2016-Jul-26 04:52 332 17.8
2016-Jul-26 04:47 332 17.8
2016-Jul-26 04:42 332 17.2
2016-Jul-26 04:37 332 17.2
2016-Jul-26 04:32 332 17.2
2016-Jul-26 04:27 332 17.2
2016-Jul-26 04:22 332 16.7
2016-Jul-26 04:17 332 16.7
2016-Jul-26 04:12 332 16.7
2016-Jul-26 04:07 332 16.7
2016-Jul-26 04:02 332 16.1
2016-Jul-26 03:57 332 15.6
2016-Jul-26 03:52 332 15.6
2016-Jul-26 03:47 332 15.6
2016-Jul-26 03:42 332 15.0
2016-Jul-26 03:37 332 15.0
2016-Jul-26 03:32 331 0 gusting 0 15.0
2016-Jul-26 03:27 332 0 gusting 0 14.4
2016-Jul-26 03:22 332 0 gusting 0 14.4
2016-Jul-26 03:17 332 14.4
2016-Jul-26 03:12 332 14.4
2016-Jul-26 03:07 332 13.9
2016-Jul-26 03:02 332 13.9
2016-Jul-26 02:57 332 13.9
2016-Jul-26 02:52 332 13.9
2016-Jul-26 02:47 332 13.9
2016-Jul-26 02:42 332 13.9
2016-Jul-26 02:37 332 0 gusting 2 13.9
2016-Jul-26 02:32 332 1 gusting 2 13.3
2016-Jul-26 02:27 331 1 gusting 2 13.3
2016-Jul-26 02:22 332 1 gusting 2 13.3
2016-Jul-26 02:17 332 0 gusting 2 13.3
2016-Jul-26 02:12 332 0 gusting 2 13.3
2016-Jul-26 02:07 332 1 gusting 1 13.3
2016-Jul-26 02:02 332 1 gusting 1 13.3
2016-Jul-26 01:57 332 0 gusting 1 13.3
2016-Jul-26 01:52 332 13.3
2016-Jul-26 01:47 332 0 gusting 2 13.3
2016-Jul-26 01:42 332 1 gusting 2 13.3
2016-Jul-26 01:37 332 1 gusting 2 13.3
2016-Jul-26 01:32 332 1 gusting 1 13.3
2016-Jul-26 01:27 332 1 gusting 1 13.3
2016-Jul-26 01:22 332 0 13.3
2016-Jul-26 01:17 332 0 13.9
2016-Jul-26 01:12 332 13.9
2016-Jul-26 01:07 331 13.9
2016-Jul-26 01:02 332 13.9
2016-Jul-26 00:57 332 13.9
2016-Jul-26 00:52 332 13.9
2016-Jul-26 00:47 332 13.9
2016-Jul-26 00:42 332 0 gusting 1 13.9
2016-Jul-26 00:37 332 0 gusting 1 13.9
2016-Jul-26 00:32 332 0 gusting 1 13.9
2016-Jul-26 00:27 332 0 gusting 1 13.9
2016-Jul-26 00:22 331 0 gusting 1 14.4
2016-Jul-26 00:17 332 0 gusting 1 14.4
2016-Jul-26 00:12 332 0 gusting 1 14.4
2016-Jul-26 00:07 332 14.4
2016-Jul-26 00:02 331 14.4
2016-Jul-25 23:57 332 0 gusting 2 14.4
2016-Jul-25 23:52 332 1 gusting 1 14.4
2016-Jul-25 23:47 331 1 gusting 1 14.4
2016-Jul-25 23:42 332 0 gusting 1 14.4
2016-Jul-25 23:37 332 0 gusting 1 14.4
2016-Jul-25 23:32 332 15.0
2016-Jul-25 23:27 332 15.0
2016-Jul-25 23:22 332 0 gusting 3 14.4
2016-Jul-25 23:17 332 1 gusting 3 14.4
2016-Jul-25 23:12 332 0 gusting 0 14.4
2016-Jul-25 23:07 331 15.0
2016-Jul-25 23:02 332 15.0